Moline, IL

8:42 PM CDT on May 22, 2018 (GMT -0500)
Quad-City International

Weather History for KMLI - January, 2014

Change the Weather History Date:

Wednesday, January 1, 2014

  Actual Average Record
Temperature  
Mean Temperature 12 °F 23 °F  
Max Temperature 15 °F 31 °F 63 °F (1897)
Min Temperature 9 °F 15 °F -19 °F (2018)
Degree Days  
Heating Degree Days 53 42  
Month to date heating degree days 53 42  
Since 1 July heating degree days 2769 2463  
Cooling Degree Days 0 0  
Month to date cooling degree days 0 0  
Year to date cooling degree days 0 0  
Moisture  
Dew Point 6 °F    
Average Humidity 77    
Maximum Humidity 84    
Minimum Humidity 70    
Precipitation  
Precipitation 0.16 in 0.05 in 1.85 in (1876)
Month to date precipitation 0.16 0.05  
Year to date precipitation 0.16 0.05  
Snow  
Snow 3.20 in 0.30 in - ()
Month to date snowfall 3.2 0.3  
Since 1 July snowfall 18.0 10.8  
Snow Depth 2.00 in    
Sea Level Pressure  
Sea Level Pressure 30.25 in    
Wind  
Wind Speed 11 mph (NE)    
Max Wind Speed 17 mph    
Max Gust Speed 21 mph    
Visibility 4 miles    
Events Fog , Snow    
T = Trace of Precipitation, MM = Missing Value Source: NWS Daily Summary

Daily Weather History Graph

Daily Weather History Graph

Search for Another Location

Airport or City:

Astronomy

Jan. 01, 2014 Rise Set
Actual Time 7:28 AM CST 4:43 PM CST
Civil Twilight 6:57 AM CST 5:14 PM CST
Nautical Twilight 6:22 AM CST 5:49 PM CST
Astronomical Twilight 5:48 AM CST 6:22 PM CST
Moon 7:18 AM CST (1/1) 5:29 PM CST (1/1)
Length of Visible Light 10h 17m
Length of Day
9h 14m
New Moon, 0% of the Moon is Illuminated
Jan 1
New Moon
Jan 7
First Quarter
Jan 15
Full
Jan 23
Last Quarter
Jan 30
New

Hourly Weather History & Observations

Time (CST) Temp. Windchill Dew Point Humidity Pressure Visibility Wind Dir Wind Speed Gust Speed Precip Events Conditions
12:52 AM 12.0 °F -2.0 °F 5.0 °F 73% 30.27 in 10.0 mi ENE 11.5 mph - N/A   Scattered Clouds
1:52 AM 10.9 °F -4.1 °F 5.0 °F 77% 30.27 in 10.0 mi ENE 12.7 mph - N/A   Clear
2:52 AM 10.9 °F -3.4 °F 5.0 °F 77% 30.27 in 10.0 mi ENE 11.5 mph - N/A   Clear
3:52 AM 10.0 °F -4.5 °F 3.9 °F 76% 30.26 in 10.0 mi NE 11.5 mph - N/A   Clear
4:52 AM 10.0 °F -4.5 °F 3.9 °F 76% 30.26 in 10.0 mi NE 11.5 mph 20.7 mph N/A   Clear
5:08 AM 10.4 °F -4.1 °F 3.2 °F 73% 30.22 in 10.0 mi ENE 11.5 mph - N/A   Mostly Cloudy
5:52 AM 10.0 °F -5.2 °F 3.9 °F 76% 30.25 in 10.0 mi ENE 12.7 mph - N/A   Overcast
6:52 AM 10.9 °F -4.7 °F 5.0 °F 77% 30.26 in 7.0 mi ENE 13.8 mph - N/A   Overcast
7:52 AM 10.0 °F -5.2 °F 5.0 °F 80% 30.28 in 3.0 mi NE 12.7 mph 19.6 mph 0.00 in   Haze
8:41 AM 10.4 °F -3.3 °F 3.2 °F 73% 30.25 in 1.8 mi NE 10.4 mph - 0.00 in Snow Light Snow
8:52 AM 10.0 °F -2.9 °F 3.9 °F 76% 30.30 in 1.8 mi NE 9.2 mph - 0.00 in Snow Light Snow
9:09 AM 10.4 °F -4.1 °F 3.2 °F 73% 30.26 in 2.5 mi NE 11.5 mph - 0.00 in Snow Light Snow
9:20 AM 10.4 °F -4.8 °F 3.2 °F 73% 30.26 in 3.0 mi ENE 12.7 mph - 0.00 in Snow Light Snow
9:35 AM 10.4 °F -4.1 °F 3.2 °F 73% 30.26 in 2.5 mi NE 11.5 mph - 0.00 in Snow Light Snow
9:52 AM 10.0 °F -3.7 °F 3.9 °F 76% 30.29 in 2.0 mi NE 10.4 mph - 0.01 in Snow Light Snow
9:59 AM 10.4 °F -4.8 °F 3.2 °F 73% 30.26 in 1.5 mi NE 12.7 mph - 0.00 in Snow Light Snow
10:06 AM 10.4 °F -3.3 °F 3.2 °F 73% 30.25 in 1.0 mi NE 10.4 mph - 0.00 in Snow Light Snow
10:23 AM 10.4 °F -4.1 °F 5.0 °F 79% 30.25 in 0.8 mi NE 11.5 mph - 0.01 in Snow Light Snow
10:52 AM 10.0 °F -5.2 °F 5.0 °F 80% 30.29 in 0.8 mi ENE 12.7 mph 20.7 mph 0.02 in Snow Light Snow
11:07 AM 10.4 °F -4.1 °F 5.0 °F 79% 30.25 in 0.5 mi ENE 11.5 mph - 0.01 in Snow Snow
11:41 AM 10.4 °F -4.1 °F 6.8 °F 85% 30.23 in 0.5 mi NE 11.5 mph 17.3 mph 0.03 in Snow Snow
11:52 AM 12.0 °F -2.0 °F 6.1 °F 77% 30.27 in 1.0 mi NE 11.5 mph 17.3 mph 0.04 in Snow Light Snow
12:11 PM 12.2 °F -0.2 °F 6.8 °F 79% 30.22 in 1.8 mi NE 9.2 mph - 0.00 in Snow Light Snow
12:52 PM 12.9 °F 2.6 °F 8.1 °F 81% 30.26 in 0.8 mi NNE 6.9 mph - 0.01 in Snow Light Snow
1:13 PM 12.2 °F -1.8 °F 8.6 °F 85% 30.21 in 0.5 mi NE 11.5 mph - 0.01 in Snow Snow
1:22 PM 12.2 °F -2.5 °F 8.6 °F 85% 30.20 in 0.5 mi NE 12.7 mph - 0.02 in Snow Snow
1:52 PM 14.0 °F 2.0 °F 9.0 °F 80% 30.23 in 0.5 mi NE 9.2 mph - 0.04 in Snow Snow
2:32 PM 15.8 °F 3.4 °F 8.6 °F 73% 30.19 in 1.0 mi NE 10.4 mph - 0.01 in Snow Light Snow
2:52 PM 15.1 °F 5.2 °F 10.0 °F 80% 30.23 in 0.8 mi NE 6.9 mph - 0.02 in Snow Light Snow
3:14 PM 15.8 °F 4.2 °F 10.4 °F 79% 30.20 in 0.5 mi NE 9.2 mph - 0.02 in Snow Snow
3:52 PM 15.1 °F 2.5 °F 10.9 °F 84% 30.24 in 0.5 mi NE 10.4 mph - 0.05 in Fog , Snow Snow
4:18 PM 15.8 °F 4.2 °F 10.4 °F 79% 30.20 in 1.0 mi NE 9.2 mph 19.6 mph 0.01 in Snow Light Snow
4:52 PM 15.1 °F 3.3 °F 10.0 °F 80% 30.25 in 1.0 mi NNE 9.2 mph - 0.02 in Snow Light Snow
5:52 PM 15.1 °F 1.8 °F 10.0 °F 80% 30.25 in 1.8 mi NE 11.5 mph - 0.02 in Snow Light Snow
6:52 PM 15.1 °F 3.3 °F 10.0 °F 80% 30.27 in 1.5 mi North 9.2 mph - 0.01 in Snow Light Snow
7:04 PM 14.0 °F 0.5 °F 8.6 °F 79% 30.24 in 1.5 mi NNE 11.5 mph - 0.00 in   Haze
7:13 PM 14.0 °F 0.5 °F 8.6 °F 79% 30.24 in 1.5 mi NNE 11.5 mph 20.7 mph 0.00 in   Haze
7:17 PM 14.0 °F 1.2 °F 8.6 °F 79% 30.25 in 2.5 mi NNE 10.4 mph 20.7 mph 0.00 in   Haze
7:26 PM 14.0 °F 1.2 °F 8.6 °F 79% 30.24 in 4.0 mi NNE 10.4 mph - 0.00 in   Haze
7:52 PM 14.0 °F -0.2 °F 8.1 °F 77% 30.28 in 10.0 mi North 12.7 mph 17.3 mph 0.00 in   Overcast
8:52 PM 12.0 °F -2.0 °F 5.0 °F 73% 30.29 in 10.0 mi North 11.5 mph - N/A   Overcast
9:52 PM 10.9 °F -2.6 °F 3.9 °F 73% 30.29 in 10.0 mi North 10.4 mph - N/A   Overcast
10:52 PM 10.9 °F 0.2 °F 3.9 °F 73% 30.28 in 10.0 mi NNE 6.9 mph - N/A   Overcast
11:52 PM 10.9 °F 0.2 °F 3.0 °F 70% 30.27 in 8.0 mi North 6.9 mph - N/A   Overcast